Simultaneous Nadir Overpasses (SNOs) Predictions

Prediction of SNOs between GOES-17 and NOAA-19 Satellite Orbit:

Table of predicted SNOs for the next 14.0 days since TLE Epoch: 1/18/2025
Index Date Time (GOES-17) GOES-17 Lat,Lon NOAA-19 Lat,Lon Distance(km) Time Diff (sec)
1 01/18/2025 04:32:17 -0.00,-104.67 0.07,-104.28 44.03 80
2 01/19/2025 04:19:45 -0.01,-104.67 0.77,-101.24 391.39 80
3 01/20/2025 16:51:02 0.00,-104.69 0.95,-108.75 463.67 80
4 01/21/2025 16:38:30 0.00,-104.70 0.26,-105.71 116.09 80
5 01/22/2025 16:28:39 0.00,-104.70 -0.44,-102.67 231.44 80
6 01/25/2025 04:47:38 0.00,-104.69 -0.55,-107.21 286.17 80
7 01/26/2025 04:32:26 -0.00,-104.69 0.12,-104.15 60.99 80
8 01/27/2025 04:19:55 -0.01,-104.69 0.84,-101.11 408.15 80
9 01/28/2025 16:51:12 -0.00,-104.69 0.89,-108.63 449.41 80
10 01/29/2025 16:38:40 0.00,-104.69 0.18,-105.59 102.03 80
11 01/30/2025 16:28:48 0.01,-104.69 -0.47,-102.53 245.48 80
